Location: Dürabuch
(48.2640°N, 11.2185°E)
Time: 21:33:23
(UTC+00:00)

Resurs 1-4 Rocket - Pass Details

Date: 23 May 2024
Orbit: 798 x 814 km, 98.7° (Epoch: 14 June)

Event Time Altitude Azimuth Distance (km) Brightness Sun altitude
Rises 00:25:28 0° 23° (NNE) 3,317 7.0 -19.2°
Reaches altitude 10° 00:28:05 10° 33° (NNE) 2,382 5.7 -19.0°
Maximum altitude 00:32:42 31° 95° (E) 1,388 3.4 -18.8°
Enters shadow 00:36:01 16° 147° (SSE) 1,963 3.8 -18.6°
